Weather History for Guymon, OK

Change the Weather History Date:

Wednesday, May 1, 2013

  Actual Average Record
Temperature  
Mean Temperature 53 °F 60 °F  
Max Temperature 72 °F 75 °F 92 °F (2012)
Min Temperature 34 °F 45 °F 34 °F (2013)
Degree Days  
Heating Degree Days 12 6  
Month to date heating degree days 12 6  
Since 1 July heating degree days 4225 4359  
Cooling Degree Days 0 1  
Month to date cooling degree days 0 1  
Year to date cooling degree days 25 16  
Growing Degree Days 2 (Base 50)    
Moisture  
Dew Point 36 °F    
Average Humidity 65    
Maximum Humidity 85    
Minimum Humidity 44    
Precipitation  
Precipitation T in 0.03 in 1.19 in (1999)
Month to date precipitation T 0.03  
Year to date precipitation 2.19 3.84  
Snow  
Snow T in - - ()
Month to date snowfall T  
Since 1 July snowfall 22.0  
Snow Depth 0.00 in    
Sea Level Pressure  
Sea Level Pressure 30.05 in    
Wind  
Wind Speed 28 mph (North)    
Max Wind Speed 44 mph    
Max Gust Speed 53 mph    
Visibility 9 miles    
Events Snow    
T = Trace of Precipitation, MM = Missing Value Source: NWS Daily Summary

Daily Weather History Graph

Daily Weather History Graph

Search for Another Location

Airport:

Trip Planner

Search our weather history database for the weather conditions in past years. The results will help you decide how hot, cold, wet, or windy it might be!

Date:

Astronomy

May. 01, 2013 Rise Set
Actual Time 6:51 AM CDT 8:34 PM CDT
Civil Twilight 6:24 AM CDT 9:02 PM CDT
Nautical Twilight 5:50 AM CDT 9:36 PM CDT
Astronomical Twilight 5:15 AM CDT 10:11 PM CDT
Moon 1:45 AM CDT (5/1) 12:32 PM CDT (5/1)
Length of Visible Light 14h 38m
Length of Day
13h 42m
Waning Gibbous, 59% of the Moon is Illuminated
May 1
Waning Gibbous
May 2
Last Quarter
May 9
New
May 17
First Quarter
May 24
Full

Hourly Weather History & Observations

Time (CDT) Temp. Windchill Dew Point Humidity Pressure Visibility Wind Dir Wind Speed Gust Speed Precip Events Conditions
12:53 AM 72.0 °F - 48.0 °F 43% 29.44 in 10.0 mi SSE 25.3 mph 36.8 mph N/A   Clear
1:53 AM 72.0 °F - 48.0 °F 43% 29.47 in 10.0 mi South 19.6 mph 32.2 mph N/A   Clear
2:53 AM 68.0 °F - 48.9 °F 50% 29.46 in 10.0 mi South 23.0 mph 29.9 mph N/A   Clear
3:53 AM 63.0 °F - 42.1 °F 46% 29.52 in 10.0 mi SW 19.6 mph - N/A   Clear
4:53 AM 59.0 °F - 48.0 °F 67% 29.55 in 10.0 mi West 17.3 mph 21.9 mph N/A   Clear
5:33 AM 57.2 °F - 39.2 °F 51% 29.71 in 8.0 mi NNW 36.8 mph 47.2 mph N/A   Scattered Clouds
5:43 AM 55.4 °F - 35.6 °F 47% 29.74 in 8.0 mi NNW 29.9 mph 46.0 mph N/A   Mostly Cloudy
5:53 AM 53.1 °F - 32.0 °F 45% 29.61 in 7.0 mi NNW 36.8 mph 44.9 mph N/A   Overcast
6:03 AM 53.6 °F - 32.0 °F 44% 29.77 in 6.0 mi North 35.7 mph 52.9 mph N/A   Haze
6:27 AM 51.8 °F - 33.8 °F 50% 29.81 in 5.0 mi North 35.7 mph 51.8 mph N/A   Haze
6:53 AM 48.9 °F - 35.1 °F 59% 29.73 in 8.0 mi North 38.0 mph 48.3 mph N/A   Overcast
7:53 AM 46.0 °F 36.2 °F 37.0 °F 71% 29.83 in 10.0 mi North 33.4 mph 44.9 mph N/A   Overcast
8:25 AM 44.6 °F 33.8 °F 37.4 °F 76% 29.96 in 10.0 mi North 36.8 mph 47.2 mph N/A   Overcast
8:53 AM 45.0 °F 34.7 °F 37.9 °F 76% 29.90 in 10.0 mi North 33.4 mph 47.2 mph N/A   Overcast
9:53 AM 44.1 °F 33.8 °F 37.9 °F 79% 29.95 in 10.0 mi North 31.1 mph 38.0 mph N/A   Overcast
10:53 AM 44.1 °F 34.0 °F 37.9 °F 79% 30.00 in 10.0 mi North 29.9 mph 41.4 mph N/A   Overcast
11:53 AM 45.0 °F 35.8 °F 37.0 °F 74% 30.04 in 10.0 mi North 26.5 mph 35.7 mph N/A   Overcast
12:53 PM 44.1 °F 33.7 °F 36.0 °F 73% 30.05 in 10.0 mi North 32.2 mph 39.1 mph N/A   Overcast
1:25 PM 44.6 °F 34.6 °F 33.8 °F 66% 30.13 in 10.0 mi North 31.1 mph 39.1 mph N/A   Overcast
2:53 PM 44.1 °F 34.4 °F 34.0 °F 68% 30.10 in 10.0 mi NNE 27.6 mph 35.7 mph N/A   Overcast
3:53 PM 43.0 °F 33.3 °F 34.0 °F 71% 30.14 in 10.0 mi North 25.3 mph 34.5 mph N/A   Overcast
4:02 PM 42.8 °F 32.5 °F 33.8 °F 70% 30.19 in 10.0 mi North 28.8 mph 35.7 mph N/A   Overcast
4:41 PM 42.8 °F 32.7 °F 33.8 °F 70% 30.19 in 10.0 mi North 27.6 mph 35.7 mph N/A   Overcast
4:53 PM 42.1 °F 31.7 °F 33.1 °F 70% 30.16 in 10.0 mi NNE 27.6 mph 34.5 mph N/A   Overcast
5:53 PM 41.0 °F 30.2 °F 33.1 °F 73% 30.19 in 10.0 mi North 27.6 mph 36.8 mph N/A   Overcast
6:02 PM 41.0 °F 30.7 °F 33.8 °F 76% 30.22 in 10.0 mi NNE 25.3 mph 32.2 mph N/A   Overcast
6:53 PM 39.9 °F 28.4 °F 32.0 °F 73% 30.23 in 10.0 mi North 29.9 mph 35.7 mph N/A   Overcast
7:53 PM 39.0 °F 27.8 °F 33.1 °F 79% 30.27 in 10.0 mi NNE 26.5 mph 36.8 mph N/A   Overcast
8:16 PM 37.4 °F 25.0 °F 33.8 °F 87% 30.29 in 9.0 mi North 29.9 mph 38.0 mph N/A   Overcast
8:53 PM 37.9 °F 27.1 °F 33.1 °F 83% 30.32 in 9.0 mi North 23.0 mph 35.7 mph N/A   Overcast
9:03 PM 37.4 °F 25.2 °F 33.8 °F 87% 30.32 in 5.0 mi North 28.8 mph 38.0 mph 0.00 in Snow Light Snow
9:27 PM 37.4 °F 25.6 °F 32.0 °F 81% 30.35 in 10.0 mi NNE 26.5 mph 38.0 mph 0.00 in   Overcast
9:39 PM 37.4 °F 26.1 °F 33.8 °F 87% 30.36 in 9.0 mi North 24.2 mph 33.4 mph 0.00 in   Overcast
9:53 PM 36.0 °F 23.0 °F 32.0 °F 86% 30.38 in 8.0 mi North 29.9 mph 39.1 mph 0.00 in Snow Light Snow
10:41 PM 35.6 °F 23.7 °F 32.0 °F 87% 30.40 in 6.0 mi North 24.2 mph 34.5 mph 0.00 in Snow Light Snow
10:51 PM 33.8 °F 19.9 °F 32.0 °F 93% 30.40 in 6.0 mi North 31.1 mph 36.8 mph 0.00 in Snow Light Snow
10:53 PM 34.0 °F 20.8 °F 32.0 °F 92% 30.42 in 6.0 mi North 27.6 mph 36.8 mph 0.00 in Snow Light Snow
10:56 PM 33.8 °F 20.1 °F 32.0 °F 93% 30.41 in 8.0 mi North 29.9 mph 38.0 mph 0.00 in Snow Light Snow
11:04 PM 33.8 °F 20.5 °F 33.8 °F 100% 30.40 in 6.0 mi North 27.6 mph 38.0 mph 0.00 in Snow Light Snow
11:53 PM 34.0 °F 21.0 °F 30.9 °F 89% 30.43 in 10.0 mi North 26.5 mph 38.0 mph 0.00 in   Overcast